TimePDT,TemperatureF,Dew PointF,Humidity,Sea Level PressureIn,VisibilityMPH,Wind Direction,Wind SpeedMPH,Gust SpeedMPH,PrecipitationIn,Events,Conditions,WindDirDegrees,DateUTC
1:15 AM,50.0,46.4,87,30.22,10.0,North,5.8,-,N/A,,Overcast,360,2013-05-09 08:15:00
2:55 AM,50.0,46.4,87,30.22,10.0,North,5.8,-,N/A,,Overcast,360,2013-05-09 09:55:00
3:15 AM,50.0,46.4,87,30.23,10.0,NE,5.8,-,N/A,,Overcast,40,2013-05-09 10:15:00
4:15 AM,50.0,46.4,87,30.23,10.0,NNE,3.5,-,N/A,,Overcast,30,2013-05-09 11:15:00
4:55 AM,50.0,46.4,87,30.22,10.0,North,6.9,-,N/A,,Overcast,350,2013-05-09 11:55:00
5:35 AM,50.0,46.4,87,30.22,10.0,North,4.6,-,N/A,,Overcast,360,2013-05-09 12:35:00
7:15 AM,50.0,46.4,87,30.24,10.0,East,4.6,-,N/A,,Overcast,90,2013-05-09 14:15:00
7:35 AM,50.0,46.4,87,30.24,10.0,Calm,Calm,-,N/A,,Overcast,0,2013-05-09 14:35:00
7:55 AM,50.0,48.2,94,30.24,10.0,East,3.5,-,N/A,,Overcast,80,2013-05-09 14:55:00
8:35 AM,50.0,46.4,87,30.24,10.0,Calm,Calm,-,N/A,,Overcast,0,2013-05-09 15:35:00
8:55 AM,50.0,48.2,94,30.24,10.0,Calm,Calm,-,N/A,,Overcast,0,2013-05-09 15:55:00
9:15 AM,51.8,48.2,88,30.24,10.0,WNW,3.5,-,N/A,,Overcast,300,2013-05-09 16:15:00
9:35 AM,51.8,48.2,88,30.24,10.0,NW,8.1,-,N/A,,Overcast,320,2013-05-09 16:35:00
10:15 AM,51.8,50.0,94,30.23,10.0,NNW,4.6,-,N/A,,Overcast,340,2013-05-09 17:15:00
10:55 AM,53.6,50.0,88,30.24,10.0,NW,8.1,-,N/A,,Overcast,320,2013-05-09 17:55:00
11:15 AM,53.6,50.0,88,30.24,10.0,NNW,8.1,-,N/A,,Overcast,330,2013-05-09 18:15:00
11:35 AM,53.6,50.0,88,30.24,10.0,NW,11.5,-,N/A,,Mostly Cloudy,320,2013-05-09 18:35:00
11:55 AM,55.4,50.0,82,30.24,10.0,NW,11.5,-,N/A,,Scattered Clouds,320,2013-05-09 18:55:00
12:15 PM,55.4,50.0,82,30.24,10.0,NNW,13.8,-,N/A,,Scattered Clouds,330,2013-05-09 19:15:00
12:35 PM,53.6,50.0,88,30.24,10.0,NNW,15.0,-,N/A,,Scattered Clouds,330,2013-05-09 19:35:00
1:15 PM,53.6,50.0,88,30.24,10.0,NNW,15.0,-,N/A,,Clear,330,2013-05-09 20:15:00
1:35 PM,55.4,50.0,82,30.24,10.0,NNW,16.1,-,N/A,,Clear,330,2013-05-09 20:35:00
1:55 PM,55.4,50.0,82,30.24,10.0,NNW,16.1,-,N/A,,Clear,330,2013-05-09 20:55:00
2:15 PM,55.4,50.0,82,30.23,10.0,NW,17.3,23.0,N/A,,Clear,320,2013-05-09 21:15:00
2:35 PM,55.4,48.2,77,30.23,10.0,NNW,18.4,24.2,N/A,,Clear,330,2013-05-09 21:35:00
2:55 PM,55.4,48.2,77,30.22,10.0,NNW,18.4,25.3,N/A,,Clear,330,2013-05-09 21:55:00
3:15 PM,55.4,50.0,82,30.22,10.0,NNW,17.3,24.2,N/A,,Clear,340,2013-05-09 22:15:00
3:35 PM,55.4,48.2,77,30.21,10.0,NNW,17.3,-,N/A,,Clear,330,2013-05-09 22:35:00
3:55 PM,55.4,50.0,82,30.20,10.0,North,17.3,24.2,N/A,,Clear,350,2013-05-09 22:55:00
4:15 PM,53.6,48.2,82,30.20,10.0,NNW,13.8,-,N/A,,Clear,340,2013-05-09 23:15:00
4:35 PM,53.6,48.2,82,30.19,10.0,NNW,16.1,23.0,N/A,,Clear,340,2013-05-09 23:35:00
4:55 PM,53.6,50.0,88,30.19,10.0,NNW,18.4,25.3,N/A,,Clear,340,2013-05-09 23:55:00
5:15 PM,53.6,50.0,88,30.19,10.0,NNW,18.4,23.0,N/A,,Clear,340,2013-05-10 00:15:00
5:35 PM,53.6,50.0,88,30.18,10.0,NNW,16.1,24.2,N/A,,Clear,340,2013-05-10 00:35:00
5:55 PM,53.6,50.0,88,30.18,10.0,North,15.0,21.9,N/A,,Clear,350,2013-05-10 00:55:00
6:15 PM,53.6,50.0,88,30.17,10.0,NNW,15.0,21.9,N/A,,Clear,340,2013-05-10 01:15:00
6:35 PM,53.6,50.0,88,30.17,10.0,NNW,15.0,-,N/A,,Clear,340,2013-05-10 01:35:00
6:55 PM,51.8,48.2,88,30.17,10.0,NNW,13.8,21.9,N/A,,Clear,340,2013-05-10 01:55:00
7:15 PM,51.8,50.0,94,30.17,10.0,NNW,13.8,18.4,N/A,,Clear,340,2013-05-10 02:15:00
7:35 PM,51.8,50.0,94,30.18,10.0,NNW,13.8,-,N/A,,Mostly Cloudy,330,2013-05-10 02:35:00
7:55 PM,51.8,48.2,88,30.18,10.0,NNW,13.8,-,N/A,,Overcast,340,2013-05-10 02:55:00
8:15 PM,51.8,48.2,88,30.19,10.0,NNW,12.7,17.3,N/A,,Overcast,340,2013-05-10 03:15:00
8:55 PM,50.0,48.2,94,30.19,10.0,North,10.4,18.4,N/A,,Overcast,350,2013-05-10 03:55:00
9:15 PM,50.0,48.2,94,30.20,-9999.0,NNW,9.2,-,N/A,,Unknown,340,2013-05-10 04:15:00
9:35 PM,50.0,46.4,87,30.19,-9999.0,North,3.5,-,N/A,,Unknown,360,2013-05-10 04:35:00
9:55 PM,50.0,46.4,87,30.20,-9999.0,North,3.5,-,N/A,,Unknown,350,2013-05-10 04:55:00
10:15 PM,48.2,46.4,93,30.19,-9999.0,North,3.5,-,N/A,,Unknown,360,2013-05-10 05:15:00
10:55 PM,46.4,44.6,93,30.19,-9999.0,NE,4.6,-,N/A,,Unknown,50,2013-05-10 05:55:00
11:15 PM,46.4,46.4,100,30.19,-9999.0,Calm,Calm,-,N/A,,Unknown,0,2013-05-10 06:15:00
11:35 PM,44.6,44.6,100,30.20,-9999.0,Calm,Calm,-,N/A,,Unknown,0,2013-05-10 06:35:00
11:55 PM,44.6,42.8,93,30.21,-9999.0,Calm,Calm,-,N/A,,Unknown,0,2013-05-10 06:55:00